GW4400 Weather Reports


time (UTC)temp
C
wind
direction
speed
KPH
gust
KPH
rain 1hr
cm
rain 24hr
cm
rain mn
cm
humidity
%
barometer
mb
20260505153016 22 332 0.0 0.0 0.00 0.00 0.00 63 1014.7
20260505152514 22 103 0.0 0.0 0.00 0.00 0.00 64 1014.8
20260505152016 22 85 0.0 0.0 0.00 0.00 0.00 67 1014.7
20260505151512 21 131 0.0 0.0 0.00 0.00 0.00 66 1014.7
20260505151012 22 115 0.0 0.0 0.00 0.00 0.00 69 1014.6
20260505150511 22 59 0.0 0.0 0.00 0.00 0.00 68 1014.8
20260505140555 20 122 0.0 0.0 0.00 0.00 0.00 75 1015.1
20260505140111 19 222 0.0 0.0 0.00 0.00 0.00 76 1015.1
20260505125026 13 304 0.0 0.0 0.00 0.00 0.00 95 1014.4
20260505124532 13 304 0.0 0.0 0.00 0.00 0.00 95 1014.4
20260505124023 12 305 0.0 0.0 0.00 0.00 0.00 95 1014.2
20260505123524 12 305 0.0 0.0 0.00 0.00 0.00 95 1014.4
20260505123028 12 304 0.0 0.0 0.00 0.00 0.00 96 1014.4
20260505122520 12 304 0.0 0.0 0.00 0.00 0.00 96 1014.3
20260505122118 12 304 0.0 0.0 0.00 0.00 0.00 96 1014.4
20260505121522 12 305 0.0 0.0 0.00 0.00 0.00 97 1014.3
20260505121015 11 304 0.0 0.0 0.00 0.00 0.00 97 1014.5
20260505120512 11 304 0.0 0.0 0.00 0.00 0.00 97 1014.4
20260505120027 11 304 0.0 0.0 0.00 0.00 0.00 97 1014.3
20260505115508 10 305 0.0 0.0 0.00 0.00 0.00 97 1014.4
20260505115007 10 305 0.0 0.0 0.00 0.00 0.00 96 1014.4
20260505114504 10 305 0.0 0.0 0.00 0.00 0.00 96 1014.3
20260505114005 9 304 0.0 0.0 0.00 0.00 0.00 96 1014.4
20260505113600 8 304 0.0 0.0 0.00 0.00 0.00 96 1014.3
20260505113120 7 304 0.0 0.0 0.00 0.00 0.00 96 1014.0
20260505112557 7 300 0.0 0.0 0.00 0.00 0.00 96 1014.0
20260505112057 6 300 0.0 0.0 0.00 0.00 0.00 96 1013.9
20260505111556 6 300 0.0 0.0 0.00 0.00 0.00 96 1013.8
20260505111056 6 300 0.0 0.0 0.00 0.00 0.00 96 1013.7
20260505110558 5 300 0.0 0.0 0.00 0.00 0.00 96 1013.7
20260505102047 5 300 0.0 0.0 0.00 0.00 0.00 96 1013.3
20260505101552 5 300 0.0 0.0 0.00 0.00 0.00 96 1013.3
20260505101045 5 300 0.0 0.0 0.00 0.00 0.00 96 1013.4
20260505100545 5 300 0.0 0.0 0.00 0.00 0.00 95 1013.4
20260505100044 5 300 0.0 0.0 0.00 0.00 0.00 96 1013.4
20260505095543 5 300 0.0 0.0 0.00 0.00 0.00 96 1013.7
20260505095044 5 300 0.0 0.0 0.00 0.00 0.00 96 1013.7
20260505094542 5 300 0.0 0.0 0.00 0.00 0.00 96 1013.6
20260505094040 5 300 0.0 0.0 0.00 0.00 0.00 95 1013.5
20260505093540 5 300 0.0 0.0 0.00 0.00 0.00 95 1013.5
20260505093039 5 300 0.0 0.0 0.00 0.00 0.00 95 1013.7
20260505092539 5 300 0.0 0.0 0.00 0.00 0.00 95 1013.6
20260505092037 5 300 0.0 0.0 0.00 0.00 0.00 95 1013.4
20260505091539 6 300 0.0 0.0 0.00 0.00 0.00 95 1013.6
20260505091035 6 300 0.0 0.0 0.00 0.00 0.00 95 1013.6
20260505090534 6 300 0.0 0.0 0.00 0.00 0.00 95 1013.5
20260505090033 6 300 0.0 0.0 0.00 0.00 0.00 95 1013.7
20260505085532 6 300 0.0 0.0 0.00 0.00 0.00 95 1013.6
20260505085033 6 300 0.0 0.0 0.00 0.00 0.00 95 1013.6
20260505084530 6 300 0.0 0.0 0.00 0.00 0.00 96 1013.7
20260505084027 6 300 0.0 0.0 0.00 0.00 0.00 95 1013.7
20260505083527 6 300 0.0 0.0 0.00 0.00 0.00 95 1013.7
20260505083026 6 300 0.0 0.0 0.00 0.00 0.00 95 1013.7
20260505082528 6 300 0.0 0.0 0.00 0.00 0.00 95 1013.7
20260505082025 6 300 0.0 0.0 0.00 0.00 0.00 95 1013.8
20260505081526 6 300 0.0 0.0 0.00 0.00 0.00 95 1013.8
20260505081024 6 300 0.0 0.0 0.00 0.00 0.00 96 1013.8
20260505080522 6 300 0.0 0.0 0.00 0.00 0.00 95 1013.7
20260505080021 6 300 0.0 0.0 0.00 0.00 0.00 95 1013.7
20260505075520 6 300 0.0 0.0 0.00 0.00 0.00 95 1013.7
20260505075022 6 300 0.0 0.0 0.00 0.00 0.00 95 1013.7
20260505074519 6 300 0.0 0.0 0.00 0.00 0.00 95 1013.6
20260505074019 6 300 0.0 0.0 0.00 0.00 0.00 95 1013.7
20260505073523 6 300 0.0 0.0 0.00 0.00 0.00 95 1013.8
20260505073017 6 300 0.0 0.0 0.00 0.00 0.00 95 1013.7
20260505072516 7 300 0.0 0.0 0.00 0.00 0.00 95 1013.6
20260505072014 7 300 0.0 0.0 0.00 0.00 0.00 95 1013.7
20260505071528 7 300 0.0 0.0 0.00 0.00 0.00 95 1013.8
20260505071013 7 300 0.0 0.0 0.00 0.00 0.00 95 1013.7
20260505070516 7 300 0.0 0.0 0.00 0.00 0.00 95 1013.8
20260505070011 7 300 0.0 0.0 0.00 0.00 0.00 95 1013.8
20260505065509 7 300 0.0 0.0 0.00 0.00 0.00 95 1013.7
20260505065007 7 300 0.0 0.0 0.00 0.00 0.00 95 1013.7
20260505064509 7 300 0.0 0.0 0.00 0.00 0.00 95 1013.9
20260505064007 7 300 0.0 0.0 0.00 0.00 0.00 95 1013.7
20260505063506 7 300 0.0 0.0 0.00 0.00 0.00 95 1013.8
20260505063007 7 300 0.0 0.0 0.00 0.00 0.00 95 1013.8
20260505062503 7 300 0.0 0.0 0.00 0.00 0.00 95 1013.8
20260505062002 7 300 0.0 0.0 0.00 0.00 0.00 95 1013.8
20260505061502 7 300 0.0 0.0 0.00 0.00 0.00 95 1013.9
20260505061002 7 300 0.0 0.0 0.00 0.00 0.00 95 1013.9
20260505060600 7 300 0.0 0.0 0.00 0.00 0.00 94 1013.9
20260505060100 7 300 0.0 0.0 0.00 0.00 0.00 95 1013.9
20260505055601 8 300 0.0 0.0 0.00 0.00 0.00 95 1013.9
20260505055058 8 300 0.0 0.0 0.00 0.00 0.00 95 1013.9
20260505054557 8 300 0.0 0.0 0.00 0.00 0.00 95 1014.2
20260505054100 8 300 0.0 0.0 0.00 0.00 0.00 94 1014.2
20260505053555 8 300 0.0 0.0 0.00 0.00 0.00 94 1014.1
20260505053055 8 300 0.0 0.0 0.00 0.00 0.00 94 1014.1
20260505052551 8 300 0.0 0.0 0.00 0.00 0.00 94 1014.0
20260505052052 8 300 0.0 0.0 0.00 0.00 0.00 94 1014.1
20260505051602 8 300 0.0 0.0 0.00 0.00 0.00 94 1014.0
20260505051048 8 300 0.0 0.0 0.00 0.00 0.00 94 1014.1
20260505050548 8 300 0.0 0.0 0.00 0.00 0.00 94 1014.0
20260505041531 9 300 0.0 0.0 0.00 0.00 0.00 94 1014.0
20260505041029 9 300 0.0 0.0 0.00 0.00 0.00 94 1013.9
20260505040529 9 300 0.0 0.0 0.00 0.00 0.00 93 1013.9
20260505040026 10 300 0.0 0.0 0.00 0.00 0.00 93 1013.9
20260505035625 10 300 0.0 0.0 0.00 0.00 0.00 93 1013.9
20260505035024 10 300 0.0 0.0 0.00 0.00 0.00 93 1014.0
20260505034524 10 300 0.0 0.0 0.00 0.00 0.00 94 1014.0
20260505034023 10 300 0.0 0.0 0.00 0.00 0.00 93 1014.0
20260505033523 10 300 0.0 0.0 0.00 0.00 0.00 93 1014.1
20260505033022 10 300 0.0 0.0 0.00 0.00 0.00 93 1014.1
20260505032522 10 300 0.0 0.0 0.00 0.00 0.00 93 1014.1
20260505032020 10 300 0.0 0.0 0.00 0.00 0.00 93 1014.1
20260505031521 10 300 0.0 0.0 0.00 0.00 0.00 93 1014.1
20260505031019 10 300 0.0 0.0 0.00 0.00 0.00 93 1014.1
20260505030520 10 300 0.0 0.0 0.00 0.00 0.00 92 1014.0
20260505030019 11 300 0.0 0.0 0.00 0.00 0.00 92 1014.0
20260505025521 11 300 0.0 0.0 0.00 0.00 0.00 92 1014.0
20260505025019 11 300 0.0 0.0 0.00 0.00 0.00 92 1014.0
20260505024517 11 300 0.0 0.0 0.00 0.00 0.00 91 1014.0
20260505024016 11 300 0.0 0.0 0.00 0.00 0.00 91 1014.0
20260505023515 11 300 0.0 0.0 0.00 0.00 0.00 91 1014.0
20260505023021 11 300 0.0 0.0 0.00 0.00 0.00 91 1013.9
20260505022515 11 300 0.0 0.0 0.00 0.00 0.00 91 1014.0
20260505022017 11 300 0.0 0.0 0.00 0.00 0.00 91 1013.9
20260505021515 12 300 0.0 0.0 0.00 0.00 0.00 91 1013.7
20260505021012 12 300 0.0 0.0 0.00 0.00 0.00 90 1013.8
20260505020512 12 300 0.0 0.0 0.00 0.00 0.00 91 1013.6
20260505020011 12 300 0.0 0.0 0.00 0.00 0.00 90 1013.7
20260505015510 12 300 0.0 0.0 0.00 0.00 0.00 89 1013.7
20260505015009 12 300 0.0 0.0 0.00 0.00 0.00 89 1013.6
20260505014513 12 300 0.0 0.0 0.00 0.00 0.00 89 1013.6
20260505014012 12 300 0.0 0.0 0.00 0.00 0.00 89 1013.5
20260505013507 13 300 0.0 0.0 0.00 0.00 0.00 89 1013.5
20260505013007 13 300 0.0 0.0 0.00 0.00 0.00 89 1013.5
20260505012506 13 300 0.0 0.0 0.00 0.00 0.00 89 1013.4
20260505012006 13 300 0.0 0.0 0.00 0.00 0.00 88 1013.5
20260505011506 13 300 0.0 0.0 0.00 0.00 0.00 88 1013.3
20260505011005 14 300 0.0 0.0 0.00 0.00 0.00 87 1013.3
20260505010510 14 300 0.0 0.0 0.00 0.00 0.00 86 1013.3
20260505010006 14 300 0.0 0.0 0.00 0.00 0.00 86 1013.3
20260505005507 15 300 0.0 0.0 0.00 0.00 0.00 86 1013.2
20260505004503 15 300 0.0 0.0 0.00 0.00 0.00 84 1013.1
20260505004003 15 300 0.0 0.0 0.00 0.00 0.00 84 1013.0
20260505003506 16 300 0.0 0.0 0.00 0.00 0.00 83 1013.0
20260505003002 16 300 0.0 0.0 0.00 0.00 0.00 84 1013.0
20260505002502 16 300 0.0 0.0 0.00 0.00 0.00 83 1012.9
20260505002002 17 300 0.0 0.0 0.00 0.00 0.00 82 1012.8
20260505001601 17 300 0.0 0.0 0.00 0.00 0.00 81 1012.7
20260505001059 17 300 0.0 0.0 0.00 0.00 0.00 80 1012.7
20260505000559 18 300 0.0 0.0 0.00 0.00 0.00 78 1012.7
20260505000108 18 300 0.0 0.0 0.00 0.00 0.00 77 1012.6
20260504235558 19 300 0.0 0.0 0.00 0.00 0.00 75 1012.6
20260504235100 20 300 0.0 0.0 0.00 0.00 0.00 72 1012.6
20260504234556 20 300 0.0 0.0 0.00 0.00 0.00 73 1012.6
20260504234054 21 300 0.0 0.0 0.00 0.00 0.00 72 1012.5
20260504233554 22 300 0.0 0.0 0.00 0.00 0.00 73 1012.6
20260504233103 22 300 0.0 0.0 0.00 0.00 0.00 68 1012.7
20260504232553 22 300 0.0 0.0 0.00 0.00 0.00 72 1012.7
20260504232051 22 300 0.0 0.0 0.00 0.00 0.00 68 1012.7
20260504231552 22 300 0.0 0.0 0.00 0.00 0.00 65 1012.8
20260504231050 22 300 0.0 0.0 0.00 0.00 0.00 68 1012.9
20260504230554 22 300 0.0 0.0 0.00 0.00 0.00 69 1012.8
20260504230058 22 300 0.0 0.0 0.00 0.00 0.00 68 1012.8
20260504225549 22 300 0.0 0.0 0.00 0.00 0.00 63 1012.9
20260504225049 23 300 0.0 0.0 0.00 0.00 0.00 61 1012.8
20260504224547 24 300 0.0 0.0 0.00 0.00 0.00 59 1012.8
20260504224046 25 126 0.0 0.0 0.00 0.00 0.00 51 1012.8
20260504223545 25 141 0.0 0.0 0.00 0.00 0.00 48 1012.8
20260504223054 25 253 0.0 0.0 0.00 0.00 0.00 51 1012.8
20260504222544 25 110 0.0 0.0 0.00 0.00 0.00 50 1012.9
20260504222044 25 253 0.0 0.0 0.00 0.00 0.00 51 1012.9
20260504221544 24 260 0.0 1.6 0.00 0.00 0.00 52 1012.9
20260504221043 24 274 0.0 1.6 0.00 0.00 0.00 51 1013.0
20260504220543 24 281 0.0 0.0 0.00 0.00 0.00 51 1013.1
20260504220045 24 228 0.0 1.6 0.00 0.00 0.00 51 1013.1
20260504215542 23 238 0.0 1.6 0.00 0.00 0.00 51 1013.0
20260504215041 24 289 0.0 4.8 0.00 0.00 0.00 51 1013.1
20260504214547 23 251 0.0 4.8 0.00 0.00 0.00 51 1013.1
20260504214039 24 214 0.0 1.6 0.00 0.00 0.00 50 1013.1
20260504213539 24 238 0.0 1.6 0.00 0.00 0.00 53 1013.1
20260504213041 24 271 0.0 1.6 0.00 0.00 0.00 51 1013.0
20260504212536 25 265 0.0 1.6 0.00 0.00 0.00 50 1012.9
20260504212037 25 252 0.0 0.0 0.00 0.00 0.00 52 1012.9
20260504211537 25 274 0.0 0.0 0.00 0.00 0.00 50 1012.8
20260504211036 25 267 0.0 1.6 0.00 0.00 0.00 48 1012.8
20260504210633 25 278 0.0 1.6 0.00 0.00 0.00 48 1012.9
20260504210032 25 228 0.0 0.0 0.00 0.00 0.00 49 1012.9
20260504205530 25 237 0.0 0.0 0.00 0.00 0.00 46 1013.0
20260504205029 26 276 0.0 4.8 0.00 0.00 0.00 47 1013.1
20260504204529 26 268 0.0 4.8 0.00 0.00 0.00 46 1013.1
20260504204027 25 105 0.0 0.0 0.00 0.00 0.00 49 1013.1
20260504203530 26 177 0.0 0.0 0.00 0.00 0.00 49 1013.2
20260504203029 26 116 0.0 3.2 0.00 0.00 0.00 46 1013.2
20260504202524 25 205 0.0 3.2 0.00 0.00 0.00 47 1013.3
20260504202022 25 262 0.0 0.0 0.00 0.00 0.00 47 1013.2
20260504201524 25 238 0.0 0.0 0.00 0.00 0.00 49 1013.4
20260504201020 25 139 0.0 0.0 0.00 0.00 0.00 50 1013.5
20260504200519 25 221 0.0 0.0 0.00 0.00 0.00 51 1013.6
20260504200017 25 308 0.0 0.0 0.00 0.00 0.00 53 1013.7
20260504195514 25 89 0.0 1.6 0.00 0.00 0.00 50 1013.9
20260504195014 25 274 0.0 1.6 0.00 0.00 0.00 50 1013.9
20260504194513 24 257 0.0 0.0 0.00 0.00 0.00 50 1013.9
20260504194012 24 300 0.0 6.4 0.00 0.00 0.00 51 1014.0
20260504193511 25 261 0.0 6.4 0.00 0.00 0.00 48 1014.1
20260504193016 25 126 0.0 0.0 0.00 0.00 0.00 52 1014.1
20260504192507 25 248 0.0 0.0 0.00 0.00 0.00 53 1014.4
20260504192007 24 281 0.0 1.6 0.00 0.00 0.00 52 1014.5
20260504191505 24 246 0.0 1.6 0.00 0.00 0.00 54 1014.5
20260504191005 24 236 0.0 0.0 0.00 0.00 0.00 58 1014.6
20260504190506 24 251 0.0 0.0 0.00 0.00 0.00 53 1014.6
20260504190003 24 197 0.0 0.0 0.00 0.00 0.00 53 1014.6
20260504185501 23 290 0.0 0.0 0.00 0.00 0.00 56 1014.6
20260504185059 23 139 0.0 0.0 0.00 0.00 0.00 53 1014.8
20260504184626 23 218 0.0 0.0 0.00 0.00 0.00 52 1014.8
20260504184056 23 286 0.0 0.0 0.00 0.00 0.00 55 1014.8
20260504183555 24 317 0.0 0.0 0.00 0.00 0.00 54 1014.9
20260504183053 23 219 0.0 0.0 0.00 0.00 0.00 54 1014.9
20260504182551 23 150 0.0 0.0 0.00 0.00 0.00 53 1015.0
20260504182051 23 236 0.0 0.0 0.00 0.00 0.00 55 1015.1
20260504181549 23 245 0.0 0.0 0.00 0.00 0.00 56 1015.0
20260504181047 23 194 0.0 1.6 0.00 0.00 0.00 58 1015.2
20260504180545 22 79 0.0 1.6 0.00 0.00 0.00 55 1015.3
20260504180052 23 267 0.0 1.6 0.00 0.00 0.00 53 1015.4
20260504175544 23 233 0.0 0.0 0.00 0.00 0.00 57 1015.4
20260504175042 22 288 0.0 4.8 0.00 0.00 0.00 55 1015.5
20260504174544 23 297 0.0 0.0 0.00 0.00 0.00 57 1015.6
20260504174041 23 105 0.0 0.0 0.00 0.00 0.00 56 1015.6
20260504173541 23 219 0.0 0.0 0.00 0.00 0.00 54 1015.6
20260504173037 22 210 0.0 0.0 0.00 0.00 0.00 56 1015.7
20260504172533 22 214 0.0 0.0 0.00 0.00 0.00 58 1015.7
20260504172033 22 240 0.0 1.6 0.00 0.00 0.00 57 1015.9
20260504171534 22 326 0.0 1.6 0.00 0.00 0.00 58 1016.0
20260504171033 22 222 0.0 0.0 0.00 0.00 0.00 55 1016.1
20260504170533 22 50 0.0 0.0 0.00 0.00 0.00 54 1016.2